Regional Weather Roundup
Issued by NWS

Home | Current Version | Previous Version | Text Only | Print | Product List | Glossary On
Versions: 1 2 3 4 5 6 7 8 9 10 11 12 13 14 15 16 17 18 19 20 21 22 23 24 25 26 27 28 29 30 31 32 33 34 35 36 37 38 39 40 41 42 43 44 45 46 47 48 49 50
787
ASUS43 KLMK 112302
RWRKY
KENTUCKY REGIONAL WEATHER ROUNDUP
NATIONAL WEATHER SERVICE LOUISVILLE KY
600 PM EST MON DEC 11 2017

NOTE "FAIR" INDICATES FEW OR NO CLOUDS BELOW 12,000 FEET
WITH NO SIGNIFICANT WEATHER AND/OR OBSTRUCTIONS TO VISIBILITY.

KYZ001>023-026-027-061>063-070>075-120000-
WESTERN AND SOUTH CENTRAL KENTUCKY

CITY           SKY/WX    TMP DP  RH WIND       PRES   REMARKS
PADUCAH        MOCLDY    57  31  37 SW13      29.80R
HENDERSON      MOCLDY    51  33  50 SW12      29.77R
OWENSBORO      CLOUDY    50  33  52 SW10      29.77S
HOPKINSVILLE   CLOUDY    54  29  37 SW12      29.81R
BOWLING GREEN  CLOUDY    55  31  39 SW10      29.80R
GLASGOW        NOT AVBL
$$

KYZ024-025-028>034-038-045-046-053-120000-
NORTH CENTRAL KENTUCKY

CITY           SKY/WX    TMP DP  RH WIND       PRES   REMARKS
LOUISVILLE/SDF MOCLDY    53  30  41 S9        29.75R
LOUISVILLE/LOU MOCLDY    50  31  48 S7        29.76R
FORT KNOX      PTCLDY    49  30  47 S8        29.75F
$$

KYZ035>037-039>044-047>052-055>060-089>105-120000-
NORTHEAST KENTUCKY

CITY           SKY/WX    TMP DP  RH WIND       PRES   REMARKS
LEXINGTON      CLEAR     48  29  47 S14       29.75F
COVINGTON      MOCLDY    41  30  65 S6        29.73S
FRANKFORT      CLOUDY    48  28  46 S8        29.74F
$$

KYZ054-064>069-076>088-106>120-120000-
SOUTHEAST KENTUCKY

CITY           SKY/WX    TMP DP  RH WIND       PRES   REMARKS
JACKSON        CLEAR     50  26  39 S8        29.79F
LONDON         CLEAR     50  27  40 S10       29.82F
SOMERSET       NOT AVBL
MIDDLESBORO    CLEAR     48  30  48 S3        29.89F
MONTICELLO     CLEAR     48  31  51 NE3       29.84F
$$





USA.gov is the U.S. government's official web portal to all federal, state and local government web resources and services.